Location: Gazon
(48.1318°N, 1.2708°W)
Time: 22:35:57
(UTC+00:00)

Terra - Pass Details

Date: 18 September 2020
Orbit: 701 x 703 km, 98.2° (Epoch: 25 October)

Event Time Altitude Azimuth Distance (km) Brightness Sun altitude
Exits shadow 20:19:12 13° 47° (NE) 1,963 3.9 -21.4°
Drops below altitude 10° 20:20:52 10° 27° (NNE) 2,182 4.4 -21.6°
Sets 20:24:14 0° 2° (N) 3,106 5.5 -22.1°
